Regional Weather Roundup
Issued by NWS Newport/Morehead, NC

Current Version | Previous Version | Graphics & Text | Print | Product List | Glossary On
Versions: 1 2 3 4 5 6 7 8 9 10 11 12 13 14 15 16 17 18 19 20 21 22 23 24 25 26 27 28 29 30 31 32 33 34 35 36 37 38 39 40 41 42 43 44 45 46 47 48 49 50
000 ASUS42 KMHX 170426 RWRMHX WEATHER ROUNDUP FOR EASTERN NORTH CAROLINA NATIONAL WEATHER SERVICE NEWPORT/MOREHEAD CITY NC 1200 AM EDT THU AUG 17 2017 NOTE: "FAIR" INDICATES FEW OR NO CLOUDS BELOW 12,000 FEET WITH NO SIGNIFICANT WEATHER AND/OR OBSTRUCTIONS TO VISIBILITY NCZ015>017-031-032-045>047-102-103-170500- NORTH COAST CITY SKY/WX TMP DP RH WIND PRES REMARKS EDENTON CLEAR 76 73 93 CALM 30.05S ELIZABETH CITY CLEAR 73 73 100 CALM 30.04S FOG KITTY HAWK PTCLDY 74 74 100 CALM 30.03R MANTEO MOCLDY 73 72 98 CALM 30.04S $$ NCZ045>047-081-094-103-104-170500- CENTRAL COAST CITY SKY/WX TMP DP RH WIND PRES REMARKS FRISCO CLEAR 75 74 96 CALM 30.03S $$ NCZ095-097-098-100-101-170500- SOUTHERN COAST CITY SKY/WX TMP DP RH WIND PRES REMARKS BEAUFORT CLEAR 78 78 100 CALM 30.03F CEDAR ISLAND NOT AVBL JACKSONVILLE CLEAR 79 79 100 SW3 30.03S PINEY ISLAND CLEAR N/A N/A N/A CALM 30.03F WILMINGTON CLEAR 76 74 93 CALM 30.03F $$ NCZ011>013-027>030-043-044-078>080-089-090>093-098-170500- COASTAL PLAIN CITY SKY/WX TMP DP RH WIND PRES REMARKS AHOSKIE N/A 73 73 99 CALM 30.05S FOG CLINTON CLEAR 77 76 99 CALM 30.04S ELIZABETHTOWN NOT AVBL GOLDSBORO CLEAR 79 74 83 CALM 30.04F GREENVILLE PTCLDY 79 77 94 CALM 30.06S HAVELOCK PTCLDY 77 75 93 CALM 30.04F KENANSVILLE CLEAR 75 75 100 CALM 30.04F FOG KINSTON CLEAR 76 74 95 CALM 30.04F NEW BERN MOCLDY 79 78 97 CALM 30.05S RICHLANDS CLEAR 77 77 100 CALM 30.04S FOG ROCKY MOUNT CLEAR 73 73 100 CALM 30.04F FOG WASHINGTON CLEAR 78 76 94 CALM 30.04F WHITEVILLE CLEAR 76 74 96 CALM 30.03S $$ AMZ130-135-150-152-154-156-158-170-250-252-270-ANZ085-086-088-633-658-670-170500- MARINE OBSERVATIONS STATION/POSITION TIME TEMP WIND PRES WAVE SWELL AIR SEA DIR/SP/G HT/PER HT/PER (UTC) (F) (DEG/KT/KT) (MB) (FT/S) (FT/S) CHESAPEAKE LIGHT NOT AVBL 64 E VA BEACH 0350 76 77 50/ 6/ 6 1017.6 2/ 7 2/ 7 DUCK 0400 77 79 50/ 2/ 3 1016.8 2 E DUCK 0400 79 N/A 2/ 7 OREGON INLET 0400 77 82 30/ 3/ 4 1016.8 13E OREGON INLT 0348 78 N/A 3/ 7 3/ 7 HATTERAS CG 0400 78 83 90/ 2/ 3 1016.6 DIAMOND BUOY 0350 80 83 360/ 6/ 8 1016.7 2/ 8 2/ 8 CAPE LOOKOUT 0400 80 CALM / 1 1016.7 BEAUFORT LAB 0400 81 83 150/ 2/ 3 1016.4 30 SE NEW RVR IN 0408 79 84 CALM / 2 1017.1 30 SE NEW RVR IN 0413 84 N/A 2/ 7 27 SE WRIGHTSVLE 0408 83 84 190/ 2/ 4 1016.9 5 SE WRIGHTSVLE 0408 81 83 330/ 4/ 6 1016.7 225 S CAPE HAT 0350 84 84 230/ 12/ 14 1016.6 3/ 6 2/ 9 41 SE CHARLESTON 0410 84 84 230/ 6/ 8 1016.3 $$

USA.gov is the U.S. government's official web portal to all federal, state and local government web resources and services.